[[{"header":{"parameterUnit":"m.s-1","parameterCategory":2,"la1":30.2992,"la2":30.254,"lo1":-89.0895,"lo2":-89.0443,"dy":0.0025,"dx":0.0025,"nx":19,"ny":19,"refTime":"2026-05-12T09:00:00:Z","depth":"0","parameterNumber":2,"parameterNumberName":"U-component_of_CURRENTS"},"data":[0,0,0,0.0242,0.0242,0.0226,0.0227,0.0196,0.0196,0,0,0,0,0,0,0,0,0,0,0,0.0248,0.0248,0.0242,0.0241,0.0226,0.0227,0.0197,0.0196,0,0,0,0,0,0,0,0,0,0,0,0.0248,0.0248,0.0247,0.0241,0.0226,0.0227,0.0197,0.0214,0,0,0,0,0,0,0,0,0,0,0.0231,0.0246,0.0248,0.0247,0.0241,0.0226,0.0227,0.0215,0.0213,0.0196,0,0.0185,0,0.0183,0.0193,0.0192,0,0,0,0.0254,0.0248,0.0228,0.0247,0.0241,0.0226,0.0237,0.0214,0.0211,0.0193,0.0184,0.0183,0.0182,0.0192,0.0192,0.0175,0.0175,0,0,0.0254,0.0262,0.023,0.0226,0.0224,0.0237,0.0236,0.0212,0.0213,0.0184,0.0183,0.0182,0.0192,0.0192,0.0174,0.0175,0,0,0,0.0249,0.0263,0.0245,0.0227,0.0221,0.0236,0.0235,0.0215,0.0204,0.0182,0.0181,0.0192,0.0191,0.0174,0.0174,0.0154,0,0,0,0.025,0.0258,0.0245,0.0252,0.0222,0.0222,0.0238,0.0206,0.0203,0.0182,0.0192,0.0191,0.0174,0.0174,0.0154,0.0176,0,0,0,0.0251,0.0259,0.025,0.0252,0.0238,0.0222,0.0212,0.0206,0.0202,0.0192,0.019,0.0174,0.0174,0.0154,0.0176,0.0171,0,0,0,0.0271,0.0255,0.025,0.0231,0.0238,0.0204,0.0212,0.0206,0.0199,0.0191,0.0174,0.0174,0.0154,0.0175,0.0171,0.0204,0.0207,0,0,0.026,0.0254,0.0241,0.0236,0.0201,0.0208,0.0181,0.0186,0.0201,0.0182,0.0182,0.0154,0.0175,0.0171,0.0229,0.0232,0,0,0,0.0244,0.0231,0.0212,0.0202,0.0179,0.0166,0.0159,0.0171,0.0186,0.0196,0.0169,0.0184,0.0181,0.0201,0.0203,0.0224,0.0176,0.0176,0.0176,0.0231,0.0226,0.0194,0.0165,0.0162,0.0151,0.0149,0.0173,0.0157,0.0178,0.0176,0.0178,0.0199,0.0201,0.0222,0.0171,0.0171,0.0171,0.0171,0.0178,0.0148,0.0177,0.014,0.0147,0.014,0.0153,0.0158,0.0168,0.0177,0.0173,0.0191,0.0203,0.0224,0.017,0.017,0.017,0.0171,0.0171,0.0148,0.0129,0.0118,0.0109,0.0127,0.0126,0.0153,0.0162,0.018,0.0182,0.0204,0.0205,0.0216,0.0172,0.0172,0.0172,0.0172,0.0172,0.0172,0.0093,0.0086,0.0083,0.0065,0.0075,0.0091,0.0142,0.0162,0.0206,0.0216,0.0215,0.0232,0.0179,0.017,0.0173,0.0173,0.0173,0.0173,0.0172,0.0066,0.0076,0.0046,0.005,0.0045,0.0066,0.0103,0.0186,0.0211,0.0241,0.0274,0.0225,0.0241,0.024,0.0233,0.0253,0.0253,0.0253,0.0253,0.008,0.007,0.0037,0.003,0.0028,0.0059,0.0119,0.0181,0.0275,0.0315,0.0318,0.0319,0.0315,0.0335,0.0331,0.0327,0.0369,0.037,0.037,0.0119,0.0069,0.0066,0.0019,0.0018,0.0074,0.0133,0.0182,0.0315,0.0375,0.034,0.0335,0.0335,0.0327,0.0356,0.035,0.0342,0,0]},{"header":{"parameterUnit":"m.s-1","parameterCategory":2,"la1":30.2992,"la2":30.254,"lo1":-89.0895,"lo2":-89.0443,"dy":0.0025,"dx":0.0025,"nx":19,"ny":19,"refTime":"2026-05-12T09:00:00:Z","depth":"0","parameterNumber":3,"parameterNumberName":"V-component_of_CURRENTS"},"data":[0,0,0,-0.0991,-0.0995,-0.1121,-0.1121,-0.1337,-0.1339,0,0,0,0,0,0,0,0,0,0,0,-0.0969,-0.0971,-0.0991,-0.0995,-0.1121,-0.1121,-0.1336,-0.1339,0,0,0,0,0,0,0,0,0,0,0,-0.0968,-0.0971,-0.0973,-0.0996,-0.1121,-0.1121,-0.1336,-0.1221,0,0,0,0,0,0,0,0,0,0,-0.1089,-0.0947,-0.097,-0.0973,-0.0997,-0.1121,-0.1121,-0.1215,-0.1228,-0.1303,0,-0.1364,0,-0.1363,-0.1357,-0.1358,0,0,0,-0.097,-0.0935,-0.1097,-0.0974,-0.0998,-0.1121,-0.1057,-0.1222,-0.1237,-0.1322,-0.1366,-0.1373,-0.1367,-0.1359,-0.136,-0.1499,-0.1498,0,0,-0.0963,-0.0862,-0.1086,-0.1108,-0.1088,-0.1053,-0.1061,-0.123,-0.1196,-0.1367,-0.1378,-0.137,-0.1361,-0.1363,-0.1499,-0.1498,0,0,0,-0.096,-0.0856,-0.1008,-0.11,-0.1123,-0.1057,-0.1067,-0.1186,-0.1276,-0.138,-0.1373,-0.1362,-0.1366,-0.15,-0.1499,-0.1405,0,0,0,-0.0954,-0.0859,-0.1006,-0.0928,-0.1121,-0.1116,-0.1018,-0.1264,-0.1283,-0.1372,-0.1362,-0.1368,-0.15,-0.1499,-0.1409,-0.135,0,0,0,-0.0953,-0.0852,-0.0916,-0.0926,-0.1004,-0.1116,-0.1205,-0.1267,-0.128,-0.1358,-0.1369,-0.1501,-0.1499,-0.1412,-0.1357,-0.1342,0,0,0,-0.078,-0.0832,-0.0912,-0.0958,-0.1005,-0.1112,-0.1203,-0.1234,-0.1287,-0.1364,-0.15,-0.1499,-0.1413,-0.1361,-0.1345,-0.1325,-0.1308,0,0,-0.0759,-0.0824,-0.0867,-0.0946,-0.1055,-0.1089,-0.1106,-0.1214,-0.1298,-0.1446,-0.1449,-0.1407,-0.1357,-0.1343,-0.1257,-0.1241,0,0,0,-0.0805,-0.0844,-0.0894,-0.0968,-0.1076,-0.1107,-0.1177,-0.1208,-0.1298,-0.1335,-0.1409,-0.1381,-0.1375,-0.137,-0.1357,-0.1412,-0.1493,-0.1493,-0.1494,-0.0604,-0.0746,-0.08,-0.0979,-0.1032,-0.1094,-0.1115,-0.1172,-0.1267,-0.1272,-0.1306,-0.123,-0.1222,-0.1213,-0.1269,-0.1319,-0.1318,-0.1318,-0.1318,-0.0603,-0.0673,-0.0765,-0.0889,-0.0975,-0.0997,-0.1086,-0.1118,-0.1158,-0.1223,-0.1223,-0.1272,-0.1194,-0.1258,-0.1312,-0.1313,-0.1313,-0.1314,-0.1314,-0.0486,-0.0558,-0.0649,-0.08,-0.0828,-0.0925,-0.0952,-0.1013,-0.1078,-0.1057,-0.1098,-0.1099,-0.1158,-0.107,-0.107,-0.107,-0.1069,-0.1069,-0.1069,-0.04,-0.0502,-0.0539,-0.0682,-0.073,-0.0785,-0.086,-0.0908,-0.0952,-0.0981,-0.0982,-0.1129,-0.1155,-0.1166,-0.1063,-0.1064,-0.1065,-0.1066,-0.1066,-0.0363,-0.0362,-0.046,-0.0503,-0.0627,-0.0638,-0.0737,-0.0818,-0.0846,-0.086,-0.0984,-0.0966,-0.1,-0.1011,-0.102,-0.0885,-0.0885,-0.0885,-0.0885,-0.0256,-0.0282,-0.0388,-0.0459,-0.0526,-0.0582,-0.0618,-0.0734,-0.0866,-0.0918,-0.094,-0.0994,-0.0999,-0.1038,-0.1048,-0.106,-0.0939,-0.0939,-0.0939,-0.0183,-0.0258,-0.0264,-0.0394,-0.0496,-0.0519,-0.0549,-0.0695,-0.0886,-0.0949,-0.1015,-0.1012,-0.1103,-0.1107,-0.1182,-0.1193,-0.1219,0,0]}],[{"header":{"parameterUnit":"m.s-1","parameterCategory":2,"la1":30.2992,"la2":30.254,"lo1":-89.0895,"lo2":-89.0443,"dy":0.0025,"dx":0.0025,"nx":19,"ny":19,"refTime":"2026-05-12T09:00:00:Z","depth":"2","parameterNumber":2,"parameterNumberName":"U-component_of_CURRENTS"},"data":[0,0,0,0.0505,0.0503,0.0454,0.0454,0.0586,0.0588,0,0,0,0,0,0,0,0,0,0,0,0.0516,0.0514,0.0505,0.0503,0.0454,0.0454,0.0586,0.0588,0,0,0,0,0,0,0,0,0,0,0,0.0516,0.0515,0.0513,0.0502,0.0454,0.0454,0.0586,0.0583,0,0,0,0,0,0,0,0,0,0,0.0609,0.0562,0.0515,0.0513,0.0502,0.0454,0.0454,0.0581,0.0583,0.0654,0,0.0608,0,0.0593,0.0598,0.0599,0,0,0,0.0537,0.0559,0.0557,0.0513,0.0501,0.0454,0.0486,0.0581,0.0583,0.0658,0.0609,0.0613,0.0595,0.0599,0.06,0.0585,0.0584,0,0,0.0539,0.0512,0.0554,0.0557,0.0443,0.0487,0.0484,0.058,0.0562,0.061,0.0615,0.0597,0.06,0.0601,0.0586,0.0584,0,0,0,0.0524,0.0513,0.0506,0.0553,0.0523,0.0485,0.0481,0.0558,0.0556,0.0616,0.0599,0.0601,0.0603,0.0587,0.0585,0.0616,0,0,0,0.0528,0.0503,0.0506,0.049,0.0519,0.0508,0.0456,0.0549,0.0559,0.0598,0.0601,0.0604,0.0589,0.0586,0.0618,0.061,0,0,0,0.0526,0.0503,0.0485,0.0489,0.0454,0.0506,0.051,0.0551,0.0549,0.0599,0.0605,0.059,0.0587,0.062,0.0613,0.0602,0,0,0,0.0522,0.048,0.0483,0.043,0.0453,0.0454,0.0508,0.0519,0.0553,0.0602,0.0589,0.0586,0.0621,0.0615,0.0604,0.0652,0.0648,0,0,0.0481,0.0473,0.0448,0.045,0.0486,0.0465,0.0458,0.052,0.0528,0.0581,0.058,0.0618,0.0613,0.0602,0.0473,0.0475,0,0,0,0.0446,0.0439,0.0458,0.0445,0.0452,0.0469,0.0476,0.0488,0.0508,0.0523,0.0545,0.0539,0.0534,0.0563,0.0563,0.0571,0.0571,0.0572,0.0572,0.0401,0.0411,0.0421,0.0448,0.0442,0.045,0.0463,0.0452,0.0488,0.0466,0.0513,0.0447,0.0476,0.0478,0.0462,0.0462,0.0462,0.0462,0.0462,0.035,0.0336,0.0379,0.0402,0.0434,0.0405,0.0423,0.0432,0.0453,0.0461,0.0455,0.0527,0.048,0.0463,0.0463,0.0463,0.0463,0.0463,0.0463,0.0317,0.0311,0.0322,0.0321,0.0339,0.0358,0.0375,0.0394,0.0431,0.045,0.0462,0.0462,0.0502,0.0442,0.0442,0.0442,0.0442,0.0442,0.0441,0.0225,0.0242,0.0267,0.0266,0.0272,0.0287,0.0328,0.0376,0.0419,0.0458,0.0458,0.044,0.0441,0.0496,0.044,0.044,0.044,0.044,0.0441,0.0193,0.0192,0.0171,0.0191,0.0204,0.0216,0.0268,0.0383,0.0418,0.0449,0.0471,0.0471,0.0464,0.0463,0.0516,0.0468,0.0468,0.0468,0.0468,0.0192,0.0188,0.0138,0.0122,0.0142,0.0184,0.0277,0.0403,0.0488,0.0557,0.0553,0.0585,0.0582,0.0582,0.0578,0.0634,0.0617,0.0617,0.0617,0.0237,0.0165,0.0162,0.0108,0.0106,0.0193,0.0289,0.0365,0.0534,0.0623,0.0581,0.0478,0.0515,0.0514,0.0506,0.0504,0.059,0,0]},{"header":{"parameterUnit":"m.s-1","parameterCategory":2,"la1":30.2992,"la2":30.254,"lo1":-89.0895,"lo2":-89.0443,"dy":0.0025,"dx":0.0025,"nx":19,"ny":19,"refTime":"2026-05-12T09:00:00:Z","depth":"2","parameterNumber":3,"parameterNumberName":"V-component_of_CURRENTS"},"data":[0,0,0,-0.0439,-0.0443,-0.0593,-0.0593,-0.063,-0.063,0,0,0,0,0,0,0,0,0,0,0,-0.0413,-0.0415,-0.0439,-0.0444,-0.0593,-0.0593,-0.063,-0.063,0,0,0,0,0,0,0,0,0,0,0,-0.0412,-0.0415,-0.0418,-0.0444,-0.0593,-0.0593,-0.063,-0.055,0,0,0,0,0,0,0,0,0,0,-0.0421,-0.0365,-0.0414,-0.0418,-0.0445,-0.0593,-0.0593,-0.0547,-0.0555,-0.0525,0,-0.0597,0,-0.0612,-0.0631,-0.0631,0,0,0,-0.042,-0.0359,-0.0464,-0.0418,-0.0447,-0.0593,-0.0519,-0.0552,-0.056,-0.0534,-0.0598,-0.06,-0.0612,-0.0631,-0.0631,-0.0761,-0.0763,0,0,-0.0412,-0.0362,-0.046,-0.0472,-0.0547,-0.0514,-0.0524,-0.0559,-0.055,-0.0598,-0.0601,-0.0613,-0.0631,-0.0631,-0.076,-0.0762,0,0,0,-0.0404,-0.0356,-0.0461,-0.0469,-0.0508,-0.0519,-0.053,-0.0548,-0.0605,-0.0601,-0.0613,-0.0631,-0.0632,-0.0759,-0.0761,-0.061,0,0,0,-0.0398,-0.0354,-0.0459,-0.0418,-0.051,-0.0534,-0.0518,-0.0603,-0.0607,-0.0613,-0.0631,-0.0632,-0.0757,-0.076,-0.0611,-0.0619,0,0,0,-0.0395,-0.0349,-0.0403,-0.0418,-0.0498,-0.0536,-0.059,-0.0605,-0.0614,-0.0631,-0.0632,-0.0756,-0.0759,-0.0611,-0.062,-0.0607,0,0,0,-0.0288,-0.0355,-0.0402,-0.047,-0.0498,-0.0574,-0.059,-0.0606,-0.0618,-0.0631,-0.0757,-0.076,-0.0612,-0.062,-0.0607,-0.0548,-0.0541,0,0,-0.0309,-0.0355,-0.0399,-0.0447,-0.046,-0.0548,-0.054,-0.0562,-0.0664,-0.0726,-0.0731,-0.061,-0.062,-0.0607,-0.0728,-0.0714,0,0,0,-0.0363,-0.0388,-0.0379,-0.044,-0.0505,-0.0503,-0.0547,-0.0587,-0.067,-0.0698,-0.0717,-0.0733,-0.0725,-0.0695,-0.0686,-0.0775,-0.0775,-0.0774,-0.0774,-0.0249,-0.0347,-0.034,-0.0411,-0.0471,-0.0496,-0.0497,-0.0608,-0.063,-0.0686,-0.0682,-0.0688,-0.0656,-0.0648,-0.0733,-0.0733,-0.0732,-0.0732,-0.0732,-0.0254,-0.0296,-0.0355,-0.0382,-0.0418,-0.0481,-0.0555,-0.0561,-0.0593,-0.067,-0.0665,-0.0633,-0.0628,-0.0722,-0.0724,-0.0725,-0.0726,-0.0727,-0.0727,-0.0172,-0.022,-0.0265,-0.0384,-0.0424,-0.0468,-0.0518,-0.0545,-0.0594,-0.0543,-0.0577,-0.0579,-0.057,-0.0549,-0.0549,-0.0549,-0.0549,-0.0549,-0.0549,-0.0154,-0.022,-0.0207,-0.0306,-0.0365,-0.0407,-0.0499,-0.0501,-0.0526,-0.0505,-0.0504,-0.0629,-0.0635,-0.0568,-0.0548,-0.0548,-0.0548,-0.0548,-0.0548,-0.0132,-0.0154,-0.0226,-0.024,-0.0318,-0.0336,-0.0404,-0.0426,-0.0431,-0.0437,-0.0466,-0.0469,-0.0531,-0.0541,-0.0478,-0.0436,-0.0436,-0.0436,-0.0436,-0.0061,-0.0073,-0.0199,-0.0273,-0.0294,-0.0315,-0.0297,-0.0237,-0.0267,-0.0166,-0.0177,-0.015,-0.0161,-0.0204,-0.0221,-0.0153,-0.0026,-0.0025,-0.0024,0.0027,-0.0078,-0.0087,-0.021,-0.0309,-0.0256,-0.0222,-0.0168,0.0012,-0.0002,-0.0041,-0.0421,-0.0413,-0.0418,-0.0516,-0.053,-0.0435,0,0]}],[{"header":{"parameterUnit":"m.s-1","parameterCategory":2,"la1":30.2992,"la2":30.254,"lo1":-89.0895,"lo2":-89.0443,"dy":0.0025,"dx":0.0025,"nx":19,"ny":19,"refTime":"2026-05-12T09:00:00:Z","depth":"4","parameterNumber":2,"parameterNumberName":"U-component_of_CURRENTS"},"data":[0,0,0,0.0534,0.0538,0.0667,0.0667,0.0595,0.0594,0,0,0,0,0,0,0,0,0,0,0,0.0521,0.0523,0.0534,0.0538,0.0667,0.0667,0.0595,0.0594,0,0,0,0,0,0,0,0,0,0,0,0.052,0.0523,0.0526,0.0539,0.0667,0.0667,0.0595,0.055,0,0,0,0,0,0,0,0,0,0,0.0452,0.0457,0.0522,0.0526,0.054,0.0667,0.0667,0.055,0.0553,0.0477,0,0.0555,0,0.0566,0.0586,0.0585,0,0,0,0.0511,0.0455,0.0518,0.0526,0.0542,0.0667,0.0601,0.0553,0.0556,0.0479,0.0554,0.0552,0.0565,0.0585,0.0585,0.0518,0.0518,0,0,0.0504,0.0496,0.0518,0.0522,0.0645,0.0597,0.0606,0.0557,0.0566,0.0554,0.0551,0.0564,0.0584,0.0583,0.0517,0.0518,0,0,0,0.0502,0.0491,0.0558,0.0524,0.0564,0.0602,0.0611,0.0569,0.0603,0.055,0.0563,0.0584,0.0582,0.0517,0.0518,0.0614,0,0,0,0.0496,0.0492,0.0557,0.0545,0.0568,0.0592,0.0623,0.0607,0.0602,0.0564,0.0584,0.0581,0.0517,0.0517,0.0611,0.0642,0,0,0,0.0502,0.0489,0.0535,0.0546,0.0614,0.0595,0.0625,0.0607,0.0608,0.0585,0.0581,0.0517,0.0517,0.0609,0.0638,0.0687,0,0,0,0.0443,0.0534,0.0536,0.061,0.0614,0.0647,0.0626,0.0635,0.0622,0.0583,0.0517,0.0518,0.0608,0.0635,0.0684,0.0494,0,0,0,0.0516,0.0542,0.0577,0.0582,0.0633,0.0623,0.0628,0.0617,0.0593,0.051,0.0511,0.0612,0.0637,0.0687,0.0514,0,0,0,0,0.0568,0.0611,0.062,0.0658,0.0665,0.066,0.0642,0.0634,0.0633,0.0597,0.0591,0.0603,0.0632,0.051,0.0519,0.0519,0.0519,0.0519,0.0519,0.0634,0.0638,0.0682,0.0694,0.0697,0.0676,0.0675,0.0657,0.0631,0.066,0.0668,0.0748,0.0621,0.0655,0.0655,0.0656,0.0656,0.0656,0.0656,0.0715,0.0725,0.0724,0.078,0.0753,0.0755,0.0717,0.0727,0.0746,0.0718,0.0742,0.0601,0.0665,0.0664,0.0662,0.0661,0.0661,0.066,0.066,0.0712,0.0721,0.0787,0.0851,0.0859,0.083,0.0837,0.0843,0.084,0.0867,0.075,0.0807,0.0817,0.091,0.091,0.091,0.0911,0.0911,0.0911,0.0688,0.0751,0.0851,0.0911,0.0927,0.0935,0.0937,0.0917,0.0922,0.0824,0.0919,0.0833,0.0825,0.0829,0.0917,0.0916,0.0915,0.0915,0.0914,0.0672,0.0778,0.0877,0.0938,0.0968,0.0896,0.0967,0.0867,0.0862,0.0788,0.0783,0.0788,0.0733,0.0727,0.0726,0.0787,0.0785,0.0783,0,0.0678,0.0734,0.0891,0.0951,0.0889,0.0859,0.0748,0.0719,0.0695,0.0668,0.0828,0.0824,0.0825,0.0762,0.0754,0.0751,0,0,0,0.0692,0.0735,0.0806,0.0913,0.0813,0.0681,0.0679,0.062,0.0753,0.0636,0.073,0.0744,0.0807,0.0934,0.0862,0.0852,0.0855,0,0]},{"header":{"parameterUnit":"m.s-1","parameterCategory":2,"la1":30.2992,"la2":30.254,"lo1":-89.0895,"lo2":-89.0443,"dy":0.0025,"dx":0.0025,"nx":19,"ny":19,"refTime":"2026-05-12T09:00:00:Z","depth":"4","parameterNumber":3,"parameterNumberName":"V-component_of_CURRENTS"},"data":[0,0,0,0.0531,0.0532,0.0568,0.0568,0.0457,0.0456,0,0,0,0,0,0,0,0,0,0,0,0.0556,0.0558,0.0531,0.0532,0.0568,0.0568,0.0457,0.0456,0,0,0,0,0,0,0,0,0,0,0,0.0555,0.0557,0.056,0.0533,0.0568,0.0568,0.0457,0.0463,0,0,0,0,0,0,0,0,0,0,0.0446,0.049,0.0557,0.056,0.0533,0.0568,0.0567,0.0465,0.0463,0.0404,0,0.0466,0,0.045,0.0447,0.0447,0,0,0,0.0507,0.0493,0.0512,0.056,0.0534,0.0568,0.0545,0.0465,0.0462,0.04,0.0464,0.046,0.0448,0.0446,0.0446,0.0346,0.0346,0,0,0.0506,0.0532,0.0515,0.0513,0.0612,0.0544,0.0546,0.0465,0.0481,0.0464,0.0457,0.0446,0.0445,0.0444,0.0346,0.0346,0,0,0,0.0517,0.0531,0.0556,0.0518,0.0532,0.0545,0.0548,0.0485,0.05,0.0456,0.0445,0.0445,0.0443,0.0346,0.0346,0.0395,0,0,0,0.0514,0.0539,0.0556,0.0567,0.0537,0.0526,0.0571,0.0506,0.0496,0.0445,0.0445,0.0442,0.0346,0.0346,0.0394,0.0407,0,0,0,0.0542,0.0539,0.057,0.057,0.0593,0.0528,0.0536,0.0504,0.0488,0.0447,0.0441,0.0346,0.0346,0.0393,0.0405,0.0399,0,0,0,0.0527,0.0586,0.0572,0.0586,0.0594,0.0531,0.0537,0.0498,0.0466,0.0444,0.0346,0.0346,0.0393,0.0404,0.0399,0.0304,0,0,0,0.0577,0.0593,0.0581,0.0568,0.0518,0.052,0.0454,0.0443,0.0438,0.0357,0.0356,0.0395,0.0405,0.0399,0.0288,0,0,0,0,0.0573,0.0594,0.0562,0.0541,0.0481,0.0448,0.0423,0.0424,0.0424,0.0425,0.0375,0.0379,0.0374,0.0316,0.0345,0.0345,0.0345,0.0345,0.0345,0.0664,0.0599,0.056,0.0493,0.0459,0.0398,0.0378,0.0381,0.0377,0.0409,0.0406,0.0414,0.0354,0.0393,0.0393,0.0393,0.0393,0.0393,0.0394,0.0655,0.0599,0.0552,0.0508,0.0454,0.0425,0.0376,0.04,0.0396,0.0416,0.0409,0.0355,0.0398,0.0397,0.0396,0.0396,0.0396,0.0395,0.0395,0.0634,0.0605,0.0608,0.056,0.0532,0.0476,0.0458,0.0453,0.0452,0.0448,0.0386,0.0432,0.0443,0.0468,0.0468,0.0468,0.0468,0.0468,0.0468,0.0606,0.0607,0.0635,0.0602,0.0586,0.056,0.0528,0.0483,0.0463,0.0415,0.0481,0.0438,0.0436,0.0445,0.0469,0.0469,0.0469,0.0469,0.0469,0.0533,0.0647,0.0638,0.0648,0.0585,0.0527,0.0536,0.0428,0.0386,0.0308,0.0372,0.0377,0.0343,0.0343,0.0348,0.0344,0.0343,0.0341,0,0.0539,0.0574,0.062,0.0606,0.0523,0.0478,0.0386,0.0326,0.0281,0.03,0.0341,0.0419,0.042,0.0385,0.0382,0.0389,0,0,0,0.0504,0.0526,0.0527,0.0562,0.0457,0.0346,0.0338,0.0302,0.0341,0.0212,0.0313,0.032,0.0337,0.0471,0.0429,0.0426,0.0438,0,0]}]]